Flag for U.S.A. Weather past 2 weeks in Charleston, South Carolina, U.S.A.

Now
43 °F

Mostly cloudy.


Feels Like: 38 °F
Forecast: 38 / 44 °F
Wind: 8 mph from Northeast

Location: Charleston Air Force Base Reporting Station

Current Time: Mar 6, 2015 at 1:24:45 PM

Latest Report: Mar 6, 2015 at 12:56 PM


Visibility: 10 mi

Pressure: 30.40 "Hg

Humidity: 58%

Dew point: 29 °F

Location of CharlestonLocation

Historic Weather in Charleston — Graph

°F

Charleston temperature yesterday

Maximum temperature yesterday: 80 °F (at 2:56 PM)
Minimum temperature yesterday: 45 °F (at 11:56 PM)
Average temperature yesterday: 66 °F

Past Weeks' High & Low Weather Summary

 TemperatureHumidityPressure
High80 °F (Mar 4, 12:56 PM)100% (Feb 23, 4:56 AM)30.62 "Hg (Feb 23, 4:56 AM)
Low19 °F (Feb 20, 5:56 AM)20% (Feb 20, 1:56 PM)29.50 "Hg (Feb 26, 2:56 AM)
Average48 °F77%30.21 "Hg
* Reported Feb 19 11:56 AM — Mar 6 11:56 AM, Charleston, Weather by CustomWeather, © 2015

Note: Actual official high and low records may vary slightly from our data, if they occured in-between our weather recording intervals... More about our weather records

Advertising

Charleston weather history for previous 24 hours

 ConditionsComfort  
Time TempWeatherWind HumidityBarometerVisibility
11:56 AM
Fri, Mar 6
42 °FMostly cloudy.14 mph62%30.42 "Hg10 mi
10:56 AM41 °FMostly cloudy.8 mph65%30.42 "Hg10 mi
9:56 AM41 °FMore clouds than sun.9 mph67%30.42 "Hg10 mi
8:56 AM39 °FMore clouds than sun.15 mph70%30.40 "Hg10 mi
7:56 AM39 °FMore clouds than sun.9 mph73%30.38 "Hg10 mi
6:56 AM38 °FMostly cloudy.10 mph73%30.35 "Hg10 mi
5:56 AM39 °FOvercast.13 mph79%30.34 "Hg10 mi
4:56 AM39 °FDrizzle. Low clouds.9 mph93%30.31 "Hg7 mi
3:56 AM40 °FOvercast.14 mph89%30.29 "Hg9 mi
3:02 AM39 °FMostly cloudy.12 mph93%30.29 "Hg10 mi
2:56 AM40 °FDrizzle. Mostly cloudy.14 mph89%30.28 "Hg10 mi
1:56 AM40 °FDrizzle. Mostly cloudy.21 mph89%30.27 "Hg10 mi
12:56 AM42 °FOvercast.15 mph89%30.25 "Hg10 mi
11:56 PM
Thu, Mar 5
45 °FOvercast.20 mph90%30.21 "Hg10 mi
10:56 PM47 °FLight rain. Low clouds.15 mph93%30.19 "Hg10 mi
9:56 PM53 °FLight rain. Mostly cloudy.20 mph96%30.14 "Hg10 mi
8:56 PM65 °FLight rain. Mostly cloudy.5 mph94%30.09 "Hg10 mi
7:56 PM65 °FLight rain. Overcast.3 mph94%30.05 "Hg10 mi
6:56 PM65 °FLight rain. Fog.3 mph97%30.03 "Hg4 mi
5:56 PM71 °FCloudy.12 mph71%29.99 "Hg10 mi
4:56 PM75 °FPartly sunny.13 mph64%29.93 "Hg10 mi
3:56 PM77 °FBroken clouds.13 mph60%29.93 "Hg10 mi
2:56 PM80 °FPartly sunny.20 mph56%29.93 "Hg10 mi
1:56 PM79 °FPartly sunny.21 mph58%29.95 "Hg10 mi
Weather by CustomWeather, © 2015

See weather overviewHow to use our weather pages